| time (UTC) | temp F | wind direction | speed MPH | gust MPH | rain 1hr in | rain 24hr in | rain mn in | humidity % | barometer mb |
| 20260505011035 | 70 | 310 | 4.0 | 13.0 | 0.00 | 0.00 | 0.00 | 47 | 996.3 |
| 20260505010533 | 70 | 342 | 4.0 | 16.0 | 0.00 | 0.00 | 0.00 | 46 | 996.3 |
| 20260505010044 | 70 | 290 | 6.0 | 16.0 | 0.00 | 0.00 | 0.00 | 46 | 996.2 |
| 20260505005537 | 71 | 300 | 5.0 | 14.0 | 0.00 | 0.00 | 0.00 | 45 | 996.1 |
| 20260505005038 | 71 | 302 | 5.0 | 19.0 | 0.00 | 0.00 | 0.00 | 46 | 996.0 |
| 20260505004549 | 72 | 355 | 5.0 | 19.0 | 0.00 | 0.00 | 0.00 | 45 | 995.9 |
| 20260505004037 | 72 | 292 | 6.0 | 13.0 | 0.00 | 0.00 | 0.00 | 45 | 995.7 |
| 20260505003537 | 72 | 294 | 4.0 | 12.0 | 0.00 | 0.00 | 0.00 | 45 | 995.6 |
| 20260505003046 | 73 | 326 | 3.0 | 8.0 | 0.00 | 0.00 | 0.00 | 46 | 995.4 |
| 20260505002534 | 73 | 258 | 2.0 | 8.0 | 0.00 | 0.00 | 0.00 | 47 | 995.2 |
| 20260505002037 | 73 | 229 | 2.0 | 8.0 | 0.00 | 0.00 | 0.00 | 46 | 994.9 |
| 20260505001546 | 73 | 213 | 2.0 | 8.0 | 0.00 | 0.00 | 0.00 | 45 | 994.9 |
| 20260505001035 | 74 | 208 | 2.0 | 8.0 | 0.00 | 0.00 | 0.00 | 45 | 994.9 |
| 20260505000535 | 74 | 225 | 2.0 | 9.0 | 0.00 | 0.00 | 0.00 | 44 | 995.0 |
| 20260505000046 | 74 | 207 | 3.0 | 9.0 | 0.00 | 0.00 | 0.00 | 44 | 995.1 |
| 20260504235538 | 74 | 230 | 2.0 | 8.0 | 0.00 | 0.00 | 0.00 | 43 | 995.1 |
| 20260504235036 | 74 | 217 | 2.0 | 8.0 | 0.00 | 0.00 | 0.00 | 43 | 994.9 |
| 20260504234548 | 75 | 270 | 2.0 | 7.0 | 0.00 | 0.00 | 0.00 | 42 | 994.9 |
| 20260504234042 | 75 | 213 | 3.0 | 9.0 | 0.00 | 0.00 | 0.00 | 41 | 995.0 |
| 20260504233533 | 75 | 217 | 3.0 | 9.0 | 0.00 | 0.00 | 0.00 | 42 | 995.1 |
| 20260504233054 | 75 | 261 | 4.0 | 14.0 | 0.00 | 0.00 | 0.00 | 42 | 995.2 |
| 20260504232534 | 74 | 214 | 3.0 | 14.0 | 0.00 | 0.00 | 0.00 | 44 | 995.3 |
| 20260504232034 | 74 | 291 | 3.0 | 14.0 | 0.00 | 0.00 | 0.00 | 44 | 995.4 |
| 20260504231539 | 73 | 287 | 4.0 | 11.0 | 0.00 | 0.00 | 0.00 | 43 | 995.6 |
| 20260504231034 | 73 | 213 | 4.0 | 22.0 | 0.00 | 0.00 | 0.00 | 42 | 995.5 |
| 20260504230534 | 74 | 234 | 8.0 | 22.0 | 0.00 | 0.00 | 0.00 | 41 | 995.8 |
| 20260504230046 | 75 | 227 | 6.0 | 35.0 | 0.00 | 0.00 | 0.00 | 41 | 995.8 |
| 20260504225533 | 75 | 232 | 12.0 | 35.0 | 0.00 | 0.00 | 0.00 | 41 | 996.1 |
| 20260504225034 | 75 | 215 | 3.0 | 13.0 | 0.00 | 0.00 | 0.00 | 41 | 995.8 |
| 20260504224543 | 75 | 298 | 4.0 | 15.0 | 0.00 | 0.00 | 0.00 | 41 | 995.7 |
| 20260504224036 | 76 | 219 | 6.0 | 17.0 | 0.00 | 0.00 | 0.00 | 38 | 995.6 |
| 20260504223534 | 77 | 227 | 8.0 | 17.0 | 0.00 | 0.00 | 0.00 | 39 | 995.8 |
| 20260504223044 | 78 | 218 | 6.0 | 17.0 | 0.00 | 0.00 | 0.00 | 41 | 995.6 |
| 20260504222618 | 77 | 219 | 7.0 | 19.0 | 0.00 | 0.00 | 0.00 | 41 | 995.7 |
| 20260504222036 | 77 | 240 | 6.0 | 19.0 | 0.00 | 0.00 | 0.00 | 40 | 995.7 |
| 20260504221558 | 78 | 244 | 7.0 | 19.0 | 0.00 | 0.00 | 0.00 | 38 | 995.4 |
| 20260504221033 | 78 | 213 | 7.0 | 19.0 | 0.00 | 0.00 | 0.00 | 39 | 995.7 |
| 20260504220536 | 78 | 220 | 6.0 | 14.0 | 0.00 | 0.00 | 0.00 | 40 | 995.7 |
| 20260504220113 | 78 | 259 | 5.0 | 15.0 | 0.00 | 0.00 | 0.00 | 39 | 995.9 |
| 20260504215537 | 77 | 251 | 7.0 | 15.0 | 0.00 | 0.00 | 0.00 | 38 | 996.0 |
| 20260504215036 | 76 | 289 | 5.0 | 16.0 | 0.00 | 0.00 | 0.00 | 39 | 995.8 |
| 20260504214548 | 77 | 238 | 7.0 | 16.0 | 0.00 | 0.00 | 0.00 | 38 | 995.9 |
| 20260504214040 | 77 | 266 | 5.0 | 17.0 | 0.00 | 0.00 | 0.00 | 40 | 995.9 |
| 20260504213537 | 76 | 231 | 8.0 | 17.0 | 0.00 | 0.00 | 0.00 | 38 | 996.0 |
| 20260504213102 | 77 | 190 | 5.0 | 16.0 | 0.00 | 0.00 | 0.00 | 37 | 996.0 |
| 20260504212534 | 78 | 267 | 5.0 | 18.0 | 0.00 | 0.00 | 0.00 | 40 | 996.0 |
| 20260504212037 | 78 | 186 | 9.0 | 18.0 | 0.00 | 0.00 | 0.00 | 35 | 996.0 |
| 20260504211543 | 78 | 245 | 8.0 | 18.0 | 0.00 | 0.00 | 0.00 | 38 | 996.2 |
| 20260504211034 | 78 | 230 | 4.0 | 15.0 | 0.00 | 0.00 | 0.00 | 38 | 996.4 |
| 20260504210537 | 78 | 181 | 4.0 | 18.0 | 0.00 | 0.00 | 0.00 | 41 | 996.3 |
| 20260504210041 | 78 | 202 | 5.0 | 18.0 | 0.00 | 0.00 | 0.00 | 39 | 996.2 |
| 20260504205537 | 78 | 237 | 6.0 | 18.0 | 0.00 | 0.00 | 0.00 | 35 | 996.7 |
| 20260504205034 | 78 | 286 | 8.0 | 18.0 | 0.00 | 0.00 | 0.00 | 40 | 996.4 |
| 20260504204601 | 78 | 218 | 6.0 | 16.0 | 0.00 | 0.00 | 0.00 | 41 | 996.4 |
| 20260504204038 | 78 | 254 | 8.0 | 16.0 | 0.00 | 0.00 | 0.00 | 37 | 996.4 |
| 20260504203540 | 78 | 297 | 3.0 | 14.0 | 0.00 | 0.00 | 0.00 | 40 | 996.6 |
| 20260504203048 | 78 | 222 | 6.0 | 14.0 | 0.00 | 0.00 | 0.00 | 37 | 996.5 |
| 20260504202536 | 78 | 253 | 6.0 | 16.0 | 0.00 | 0.00 | 0.00 | 37 | 996.7 |
| 20260504202042 | 78 | 214 | 5.0 | 19.0 | 0.00 | 0.00 | 0.00 | 37 | 996.7 |
| 20260504201544 | 77 | 200 | 7.0 | 19.0 | 0.00 | 0.00 | 0.00 | 38 | 996.7 |
| 20260504201037 | 78 | 225 | 9.0 | 19.0 | 0.00 | 0.00 | 0.00 | 37 | 997.3 |
| 20260504200539 | 77 | 227 | 7.0 | 19.0 | 0.00 | 0.00 | 0.00 | 38 | 996.8 |
| 20260504200057 | 78 | 216 | 7.0 | 18.0 | 0.00 | 0.00 | 0.00 | 41 | 997.1 |
| 20260504195533 | 78 | 222 | 5.0 | 14.0 | 0.00 | 0.00 | 0.00 | 37 | 997.0 |
| 20260504195035 | 77 | 190 | 4.0 | 14.0 | 0.00 | 0.00 | 0.00 | 37 | 997.1 |
| 20260504194548 | 77 | 230 | 5.0 | 20.0 | 0.00 | 0.00 | 0.00 | 38 | 997.4 |
| 20260504194034 | 77 | 273 | 7.0 | 20.0 | 0.00 | 0.00 | 0.00 | 36 | 997.2 |
| 20260504193535 | 77 | 261 | 9.0 | 19.0 | 0.00 | 0.00 | 0.00 | 37 | 997.2 |
| 20260504193041 | 77 | 255 | 4.0 | 18.0 | 0.00 | 0.00 | 0.00 | 40 | 997.1 |
| 20260504192536 | 77 | 267 | 9.0 | 18.0 | 0.00 | 0.00 | 0.00 | 36 | 997.2 |
| 20260504192033 | 77 | 227 | 6.0 | 15.0 | 0.00 | 0.00 | 0.00 | 38 | 997.2 |
| 20260504191541 | 77 | 227 | 7.0 | 14.0 | 0.00 | 0.00 | 0.00 | 37 | 997.2 |
| 20260504191037 | 76 | 263 | 5.0 | 14.0 | 0.00 | 0.00 | 0.00 | 41 | 997.3 |
| 20260504190535 | 76 | 219 | 6.0 | 19.0 | 0.00 | 0.00 | 0.00 | 39 | 997.4 |
| 20260504190048 | 76 | 191 | 7.0 | 19.0 | 0.00 | 0.00 | 0.00 | 36 | 997.3 |
| 20260504185534 | 76 | 242 | 10.0 | 22.0 | 0.00 | 0.00 | 0.00 | 35 | 997.2 |
| 20260504185035 | 76 | 232 | 6.0 | 22.0 | 0.00 | 0.00 | 0.00 | 40 | 997.2 |
| 20260504184557 | 76 | 214 | 7.0 | 19.0 | 0.00 | 0.00 | 0.00 | 38 | 997.3 |
| 20260504184034 | 76 | 225 | 9.0 | 20.0 | 0.00 | 0.00 | 0.00 | 36 | 997.4 |
| 20260504183538 | 76 | 234 | 9.0 | 24.0 | 0.00 | 0.00 | 0.00 | 37 | 997.7 |
| 20260504183051 | 75 | 185 | 8.0 | 24.0 | 0.00 | 0.00 | 0.00 | 38 | 997.8 |
| 20260504182534 | 75 | 177 | 10.0 | 24.0 | 0.00 | 0.00 | 0.00 | 36 | 997.7 |
| 20260504182033 | 75 | 207 | 7.0 | 23.0 | 0.00 | 0.00 | 0.00 | 38 | 997.7 |
| 20260504181547 | 75 | 265 | 8.0 | 23.0 | 0.00 | 0.00 | 0.00 | 38 | 997.9 |
| 20260504181038 | 74 | 233 | 9.0 | 22.0 | 0.00 | 0.00 | 0.00 | 38 | 997.7 |
| 20260504180540 | 74 | 223 | 8.0 | 21.0 | 0.00 | 0.00 | 0.00 | 39 | 997.8 |
| 20260504180048 | 74 | 213 | 7.0 | 19.0 | 0.00 | 0.00 | 0.00 | 41 | 997.9 |
| 20260504175539 | 74 | 223 | 10.0 | 19.0 | 0.00 | 0.00 | 0.00 | 37 | 997.8 |
| 20260504175041 | 74 | 225 | 8.0 | 26.0 | 0.00 | 0.00 | 0.00 | 38 | 998.0 |
| 20260504174549 | 74 | 183 | 6.0 | 26.0 | 0.00 | 0.00 | 0.00 | 38 | 998.1 |
| 20260504174037 | 74 | 186 | 9.0 | 24.0 | 0.00 | 0.00 | 0.00 | 38 | 998.1 |
| 20260504173535 | 74 | 180 | 10.0 | 24.0 | 0.00 | 0.00 | 0.00 | 42 | 998.1 |
| 20260504173042 | 73 | 204 | 9.0 | 21.0 | 0.00 | 0.00 | 0.00 | 39 | 998.1 |
| 20260504172533 | 74 | 234 | 7.0 | 19.0 | 0.00 | 0.00 | 0.00 | 40 | 998.2 |
| 20260504172035 | 74 | 293 | 7.0 | 21.0 | 0.00 | 0.00 | 0.00 | 43 | 998.2 |
| 20260504171545 | 74 | 281 | 4.0 | 21.0 | 0.00 | 0.00 | 0.00 | 43 | 998.3 |
| 20260504171034 | 74 | 217 | 5.0 | 13.0 | 0.00 | 0.00 | 0.00 | 44 | 998.4 |
| 20260504170533 | 74 | 245 | 6.0 | 14.0 | 0.00 | 0.00 | 0.00 | 40 | 998.5 |
| 20260504151034 | 69 | 194 | 10.0 | 19.0 | 0.00 | 0.00 | 0.00 | 46 | 1000.1 |
| 20260504150536 | 68 | 200 | 6.0 | 23.0 | 0.00 | 0.00 | 0.00 | 49 | 1000.1 |
| 20260504141033 | 65 | 205 | 7.0 | 15.0 | 0.00 | 0.00 | 0.00 | 52 | 1000.5 |
| 20260504140538 | 64 | 195 | 8.0 | 14.0 | 0.00 | 0.00 | 0.00 | 51 | 1000.7 |
| 20260504130534 | 59 | 209 | 4.0 | 14.0 | 0.00 | 0.00 | 0.00 | 60 | 1001.2 |
| 20260504110536 | 41 | 209 | 1.0 | 3.0 | 0.00 | 0.00 | 0.00 | 92 | 1001.6 |
| 20260504100537 | 42 | 0 | 0.0 | 4.0 | 0.00 | 0.00 | 0.00 | 92 | 1001.6 |
| 20260504081548 | 50 | 0 | 0.0 | 3.0 | 0.00 | 0.00 | 0.00 | 81 | 1002.6 |
| 20260504081033 | 50 | 209 | 1.0 | 4.0 | 0.00 | 0.00 | 0.00 | 81 | 1002.7 |
| 20260504080537 | 50 | 0 | 1.0 | 4.0 | 0.00 | 0.00 | 0.00 | 81 | 1002.8 |
| 20260504050533 | 50 | 0 | 0.0 | 2.0 | 0.00 | 0.00 | 0.00 | 83 | 1003.9 |
| 20260504045534 | 51 | 0 | 0.0 | 2.0 | 0.00 | 0.00 | 0.00 | 82 | 1004.0 |
| 20260504045035 | 50 | 0 | 0.0 | 2.0 | 0.00 | 0.00 | 0.00 | 83 | 1004.0 |
| 20260504044542 | 50 | 0 | 0.0 | 3.0 | 0.00 | 0.00 | 0.00 | 84 | 1004.1 |
| 20260504044035 | 49 | 282 | 0.0 | 3.0 | 0.00 | 0.00 | 0.00 | 86 | 1004.0 |
| 20260504043535 | 48 | 318 | 0.0 | 3.0 | 0.00 | 0.00 | 0.00 | 87 | 1003.9 |
| 20260504043044 | 48 | 0 | 0.0 | 3.0 | 0.00 | 0.00 | 0.00 | 86 | 1004.0 |
| 20260504042536 | 48 | 207 | 1.0 | 3.0 | 0.00 | 0.00 | 0.00 | 88 | 1004.0 |
| 20260504042036 | 47 | 0 | 0.0 | 2.0 | 0.00 | 0.00 | 0.00 | 87 | 1004.1 |
| 20260504041540 | 47 | 0 | 0.0 | 2.0 | 0.00 | 0.00 | 0.00 | 87 | 1004.0 |
| 20260504041033 | 47 | 0 | 0.0 | 1.0 | 0.00 | 0.00 | 0.00 | 86 | 1004.0 |
| 20260504040533 | 47 | 0 | 0.0 | 0.0 | 0.00 | 0.00 | 0.00 | 85 | 1003.9 |
| 20260504040043 | 48 | 0 | 0.0 | 0.0 | 0.00 | 0.00 | 0.00 | 85 | 1004.0 |
| 20260504035534 | 48 | 0 | 0.0 | 0.0 | 0.00 | 0.00 | 0.00 | 85 | 1004.0 |
| 20260504035038 | 48 | 0 | 0.0 | 0.0 | 0.00 | 0.00 | 0.00 | 84 | 1003.9 |
| 20260504034545 | 49 | 0 | 0.0 | 0.0 | 0.00 | 0.00 | 0.00 | 84 | 1004.0 |
| 20260504034034 | 49 | 0 | 0.0 | 0.0 | 0.00 | 0.00 | 0.00 | 83 | 1004.0 |
| 20260504033534 | 49 | 0 | 0.0 | 0.0 | 0.00 | 0.00 | 0.00 | 83 | 1004.1 |
| 20260504033044 | 49 | 0 | 0.0 | 1.0 | 0.00 | 0.00 | 0.00 | 83 | 1004.1 |
| 20260504032534 | 50 | 0 | 0.0 | 1.0 | 0.00 | 0.00 | 0.00 | 83 | 1004.0 |
| 20260504032036 | 50 | 0 | 0.0 | 1.0 | 0.00 | 0.00 | 0.00 | 83 | 1004.1 |
| 20260504031543 | 50 | 0 | 0.0 | 3.0 | 0.00 | 0.00 | 0.00 | 82 | 1004.1 |
| 20260504031036 | 50 | 0 | 0.0 | 3.0 | 0.00 | 0.00 | 0.00 | 82 | 1004.1 |
| 20260504030532 | 50 | 205 | 0.0 | 3.0 | 0.00 | 0.00 | 0.00 | 82 | 1004.0 |
| 20260504030041 | 50 | 205 | 0.0 | 4.0 | 0.00 | 0.00 | 0.00 | 82 | 1004.0 |
| 20260504025533 | 50 | 205 | 0.0 | 4.0 | 0.00 | 0.00 | 0.00 | 82 | 1004.0 |
| 20260504025036 | 50 | 205 | 1.0 | 4.0 | 0.00 | 0.00 | 0.00 | 81 | 1004.1 |
| 20260504024541 | 51 | 0 | 0.0 | 0.0 | 0.00 | 0.00 | 0.00 | 81 | 1003.9 |
| 20260504024038 | 51 | 0 | 0.0 | 0.0 | 0.00 | 0.00 | 0.00 | 79 | 1003.9 |
| 20260504023536 | 52 | 0 | 0.0 | 0.0 | 0.00 | 0.00 | 0.00 | 78 | 1003.9 |
| 20260504023049 | 52 | 0 | 0.0 | 0.0 | 0.00 | 0.00 | 0.00 | 77 | 1004.0 |
| 20260504022536 | 53 | 0 | 0.0 | 0.0 | 0.00 | 0.00 | 0.00 | 76 | 1003.8 |
| 20260504022038 | 54 | 0 | 0.0 | 0.0 | 0.00 | 0.00 | 0.00 | 75 | 1003.8 |
| 20260504021546 | 54 | 0 | 0.0 | 2.0 | 0.00 | 0.00 | 0.00 | 75 | 1003.7 |
| 20260504021041 | 54 | 0 | 0.0 | 2.0 | 0.00 | 0.00 | 0.00 | 74 | 1003.9 |
| 20260504020535 | 55 | 205 | 1.0 | 2.0 | 0.00 | 0.00 | 0.00 | 73 | 1003.8 |
| 20260504020125 | 56 | 205 | 1.0 | 2.0 | 0.00 | 0.00 | 0.00 | 71 | 1003.7 |
| 20260504015536 | 57 | 205 | 1.0 | 2.0 | 0.00 | 0.00 | 0.00 | 69 | 1003.6 |
| 20260504015034 | 58 | 0 | 0.0 | 2.0 | 0.00 | 0.00 | 0.00 | 67 | 1003.5 |
| 20260504014601 | 58 | 0 | 0.0 | 2.0 | 0.00 | 0.00 | 0.00 | 66 | 1003.7 |
| 20260504014036 | 59 | 205 | 0.0 | 2.0 | 0.00 | 0.00 | 0.00 | 65 | 1003.9 |
| 20260504013533 | 59 | 0 | 1.0 | 2.0 | 0.00 | 0.00 | 0.00 | 63 | 1003.8 |
| 20260504013053 | 60 | 0 | 0.0 | 3.0 | 0.00 | 0.00 | 0.00 | 62 | 1003.8 |
| 20260504012533 | 60 | 205 | 1.0 | 3.0 | 0.00 | 0.00 | 0.00 | 61 | 1003.6 |
| 20260504012033 | 61 | 206 | 1.0 | 4.0 | 0.00 | 0.00 | 0.00 | 60 | 1003.6 |
| 20260504011540 | 61 | 206 | 1.0 | 4.0 | 0.00 | 0.00 | 0.00 | 60 | 1003.6 |